Regional Weather Roundup
Issued by NWS

Home | Current Version | Previous Version | Graphics & Text | Print | Product List | Glossary On
Versions: 1 2 3 4 5 6 7 8 9 10 11 12 13 14 15 16 17 18 19 20 21 22 23 24 25 26 27 28 29 30 31 32 33 34 35 36 37 38 39 40 41 42 43 44 45 46 47 48 49 50
000
ASUS43 KOAX 240510
RWRNE

WEATHER ROUNDUP FOR NEBRASKA
NATIONAL WEATHER SERVICE OMAHA NE
1200 AM CDT WED SEP 24 2014

NOTES: SATELLITE DATA IS BEING USED TO AUGMENT CLOUD COVER ABOVE
       12000 FEET.
       "FAIR" INDICATES FEW OR NO CLOUDS BELOW 12,000 FEET WITH NO
       SIGNIFICANT WEATHER AND/OR OBSTRUCTIONS TO VISIBILITY.

  * THESE STATIONS DO NOT REPORT WEATHER SUCH AS RAIN...SNOW OR FOG.

NEZ001>004-019>022-054>056-240600-
NEBRASKA PANHANDLE

CITY           SKY/WX    TMP DP  RH WIND       PRES   REMARKS
SCOTTSBLUFF    CLEAR     55  50  83 N5        30.09R
ALLIANCE       CLEAR     53  48  83 W6        30.07R
CHADRON        CLEAR     55  51  86 CALM      30.03R
KIMBALL        CLEAR     55  46  73 W7        30.15R
SIDNEY         CLEAR     55  49  80 W7        30.12R
$$

NEZ057>060-069>072-079>082-240600-
SOUTHWEST NEBRASKA

CITY           SKY/WX    TMP DP  RH WIND       PRES   REMARKS
NORTH PLATTE   CLEAR     60  57  89 E7        30.03R
IMPERIAL       CLEAR     60  50  69 W5        30.04S
LEXINGTON      PTCLDY    63  59  88 E12       30.04S
MCCOOK         PTCLDY    69  60  73 SW9       30.02R
OGALLALA       CLEAR     59  54  83 CALM      30.04S
$$

NEZ005>010-023>029-035>040-094-240600-
NORTH CENTRAL NEBRASKA

CITY           SKY/WX    TMP DP  RH WIND       PRES   REMARKS
VALENTINE      PTCLDY    59  58  96 SW3       29.97S
AINSWORTH      PTCLDY    60  58  94 S9        29.99S
BROKEN BOW     PTCLDY    62  60  93 S10       30.02S
O`NEILL        CLOUDY    60  59  96 S10       30.01S
ORD            MOCLDY    60  58  92 SE5       30.01S
THEDFORD       CLEAR     62  59  91 SW8       30.02S
$$

NEZ041-046>049-061>064-073>077-083>087-240600-
SOUTH CENTRAL NEBRASKA

CITY           SKY/WX    TMP DP  RH WIND       PRES   REMARKS
GRAND ISLAND   TSTM      60  57  89 SW14      30.11R
AURORA         RAIN      60  57  89 S3        30.10R
HASTINGS       TSTM      60  55  83 E10       30.07R
HEBRON         MOCLDY    63  53  71 SE12G18   30.06R
HOLDREGE       MOCLDY    61  57  88 N13G18    30.07R
KEARNEY *      CLOUDY    63  57  82 N15G26    30.12R THUNDER
YORK           MOCLDY    61  55  82 S8        30.09R
$$

NEZ011>018-030>034-042>045-240600-
NORTHEAST NEBRASKA

CITY           SKY/WX    TMP DP  RH WIND       PRES   REMARKS
NORFOLK        CLOUDY    59  55  87 SE9       30.04S
ALBION         CLOUDY    58  55  92 SE12G17   30.03F
BLAIR          CLOUDY    64  55  72 SE12G18   30.08F
COLUMBUS *     CLOUDY    63  54  72 S9G17     30.07S
FREMONT        MOCLDY    64  55  73 SE12G17   30.07F
TEKAMAH        MOCLDY    62  55  77 SE9       30.08F
WAYNE          CLOUDY    60  56  88 S7        30.07R
$$

NEZ050>053-065>068-078-088>093-240600-
SOUTHEAST NEBRASKA

CITY           SKY/WX    TMP DP  RH WIND       PRES   REMARKS
LINCOLN        PTCLDY    64  55  72 S14       30.08F
OMAHA EPPLEY   MOCLDY    63  54  72 SE15      30.10F
BEATRICE       PTCLDY    63  55  76 S12G17    30.08F
FALLS CITY     CLOUDY    62  56  80 SE9       30.12S
NEBRASKA CITY  CLOUDY    63  52  68 S12       30.12S
PLATTSMOUTH    CLOUDY    63  54  73 SE10G16   30.11S
$$

NEZ044-045-051>053-067-240600-
OMAHA AREA

CITY           SKY/WX    TMP DP  RH WIND       PRES   REMARKS
OMAHA EPPLEY   MOCLDY    63  54  72 SE15      30.10F
BLAIR          CLOUDY    64  55  72 SE12G18   30.08F
FREMONT        MOCLDY    64  55  73 SE12G17   30.07F
MILLARD        MOCLDY    63  56  78 SE8       30.09F
OFFUTT AFB     CLOUDY    63  59  88 SE9       30.10F
PLATTSMOUTH    CLOUDY    63  54  73 SE10G16   30.11S
WAHOO          FAIR      62  54  75 SE10G16   30.08S
$$



USA.gov is the U.S. government's official web portal to all federal, state and local government web resources and services.